Location: Alafon
(8.4500°N, 4.2333°E)
Time: 22:22:10
(UTC+00:00)

Vanguard 2 - Pass Details

Date: 10 August 2021
Orbit: 553 x 2937 km, 32.9° (Epoch: 26 September)

Event Time Altitude Azimuth Distance (km) Brightness Sun altitude
Rises 11:16:07 0° 262° (W) 4,355 11.3 79.5°
Reaches altitude 10° 11:19:54 10° 244° (WSW) 3,773 11.1 80.1°
Maximum altitude 11:26:40 19° 203° (SSW) 3,711 11.2 81.2°
Drops below altitude 10° 11:35:33 10° 163° (SSE) 5,105 11.8 82.4°
Sets 11:42:10 0° 148° (SSE) 6,482 12.2 82.9°
